Ft Pierce, FL

12:16 AM EDT on April 27, 2017 (GMT -0400)
Saint Lucie County International

Weather History for KFPR - September, 2013

Change the Weather History Date:

Friday, September 27, 2013

  Actual Average Record
Temperature  
Mean Temperature 76 °F -  
Max Temperature 84 °F 88 °F 93 °F (1993)
Min Temperature 69 °F 71 °F 33 °F (1997)
Cooling Degree Days 12    
Growing Degree Days 26 (Base 50)    
Moisture  
Dew Point 70 °F    
Average Humidity 87    
Maximum Humidity 100    
Minimum Humidity 67    
Precipitation  
Precipitation 0.06 in - - ()
Sea Level Pressure  
Sea Level Pressure 29.89 in    
Wind  
Wind Speed 5 mph (NW)    
Max Wind Speed 10 mph    
Max Gust Speed 17 mph    
Visibility 6 miles    
Events Fog , Rain    
Averages and records for this station are not official NWS values.
T = Trace of Precipitation, MM = Missing Value Source: NWS Daily Summary

Daily Weather History Graph

Daily Weather History Graph

Search for Another Location

Airport or City:

Trip Planner

Search our weather history database for the weather conditions in past years. The results will help you decide how hot, cold, wet, or windy it might be!

Date:

Astronomy

Sep. 27, 2013 Rise Set
Actual Time 7:12 AM EDT 7:11 PM EDT
Civil Twilight 6:49 AM EDT 7:35 PM EDT
Nautical Twilight 6:22 AM EDT 8:02 PM EDT
Astronomical Twilight 5:54 AM EDT 8:29 PM EDT
Moon 12:35 AM EDT 2:21 PM EDT
Length of Visible Light 12h 46m
Length of Day
11h 59m
Last Quarter, 45% of the Moon is Illuminated
Sep 27
Last Quarter
Oct 4
New
Oct 11
First Quarter
Oct 18
Full
Oct 26
Last Quarter

Hourly Weather History & Observations

Time (EDT) Temp. Heat Index Dew Point Humidity Pressure Visibility Wind Dir Wind Speed Gust Speed Precip Events Conditions
12:53 AM 73.0 °F - 71.1 °F 93% 29.86 in 9.0 mi WSW 3.5 mph - N/A   Partly Cloudy
1:53 AM 73.0 °F - 71.1 °F 93% 29.86 in 6.0 mi West 4.6 mph - N/A   Scattered Clouds
2:53 AM 73.0 °F - 71.1 °F 93% 29.85 in 6.0 mi WNW 4.6 mph - N/A   Clear
3:53 AM 71.1 °F - 70.0 °F 96% 29.84 in 4.0 mi WNW 5.8 mph - N/A   Clear
4:53 AM 70.0 °F - 70.0 °F 100% 29.84 in 3.0 mi WNW 4.6 mph - N/A   Clear
5:37 AM 69.8 °F - 69.8 °F 100% 29.85 in 4.0 mi WNW 5.8 mph - N/A   Partly Cloudy
5:53 AM 69.1 °F - 69.1 °F 100% 29.85 in 4.0 mi WNW 5.8 mph - N/A   Partly Cloudy
6:53 AM 69.1 °F - 69.1 °F 100% 29.86 in 5.0 mi NW 6.9 mph - N/A   Clear
7:06 AM 69.8 °F - 69.8 °F 100% 29.87 in 5.0 mi NW 5.8 mph - N/A   Partly Cloudy
7:32 AM 69.8 °F - 69.8 °F 100% 29.88 in 3.0 mi NW 8.1 mph - N/A   Mostly Cloudy
7:49 AM 69.8 °F - 69.8 °F 100% 29.88 in 0.5 mi NW 4.6 mph - N/A Fog Fog
7:53 AM 69.1 °F - 69.1 °F 100% 29.88 in 0.5 mi NW 8.1 mph - N/A Fog Fog
8:04 AM 69.8 °F - 69.8 °F 100% 29.89 in 0.2 mi WNW 8.1 mph - N/A Fog Fog
8:53 AM 70.0 °F - 70.0 °F 100% 29.90 in 0.2 mi WNW 4.6 mph - N/A Fog Fog
9:12 AM 69.8 °F - 69.8 °F 100% 29.90 in 0.5 mi WNW 6.9 mph - N/A Fog Fog
9:19 AM - - - N/A% 29.90 in 1.0 mi WNW 4.6 mph - N/A   Overcast
9:32 AM - - - N/A% 29.90 in 0.8 mi WNW 6.9 mph - N/A   Overcast
9:37 AM - - - N/A% 29.90 in 2.5 mi WNW 8.1 mph - N/A   Overcast
9:45 AM - - - N/A% 29.91 in 4.0 mi West 8.1 mph - N/A   Haze
9:53 AM - - - N/A% 29.91 in 6.0 mi NW 8.1 mph - N/A   Haze
10:53 AM 75.0 °F - 72.0 °F 90% 29.92 in 10.0 mi NW 5.8 mph - N/A   Mostly Cloudy
11:19 AM 77.0 °F - 73.4 °F 89% 29.91 in 10.0 mi Variable 6.9 mph - N/A   Scattered Clouds
11:53 AM 79.0 °F - 71.1 °F 77% 29.91 in 10.0 mi NW 6.9 mph - N/A   Scattered Clouds
12:20 PM 80.6 °F 84.6 °F 71.6 °F 74% 29.91 in 10.0 mi Variable 6.9 mph - N/A   Mostly Cloudy
12:33 PM 80.6 °F 84.6 °F 71.6 °F 74% 29.90 in 10.0 mi North 4.6 mph - N/A   Mostly Cloudy
12:53 PM 81.0 °F 84.4 °F 70.0 °F 69% 29.90 in 10.0 mi North 9.2 mph - N/A   Mostly Cloudy
1:53 PM 84.0 °F 89.6 °F 72.0 °F 67% 29.88 in 10.0 mi Variable 6.9 mph 16.1 mph N/A   Scattered Clouds
2:53 PM 82.9 °F 87.5 °F 71.1 °F 67% 29.86 in 10.0 mi NNE 9.2 mph - N/A   Clear
3:53 PM 82.0 °F 85.9 °F 70.0 °F 67% 29.86 in 10.0 mi NE 10.4 mph 17.3 mph N/A   Mostly Cloudy
4:53 PM 82.0 °F 86.3 °F 71.1 °F 69% 29.87 in 10.0 mi North 8.1 mph - N/A   Scattered Clouds
5:53 PM 80.1 °F 82.7 °F 68.0 °F 67% 29.87 in 10.0 mi NNE 6.9 mph - N/A   Overcast
6:53 PM 78.1 °F - 66.9 °F 68% 29.89 in 10.0 mi NE 3.5 mph - N/A   Overcast
7:53 PM 78.1 °F - 69.1 °F 74% 29.90 in 10.0 mi NNE 3.5 mph - N/A   Overcast
8:53 PM 73.9 °F - 69.1 °F 85% 29.93 in 10.0 mi Calm Calm - 0.01 in   Overcast
9:53 PM 73.9 °F - 72.0 °F 93% 29.94 in 10.0 mi Calm Calm - 0.05 in   Overcast
10:53 PM 75.9 °F - 72.0 °F 87% 29.94 in 10.0 mi Calm Calm - 0.00 in   Overcast
11:53 PM 75.0 °F - 71.1 °F 87% 29.95 in 10.0 mi Calm Calm - 0.00 in Rain Light Rain